Date String (YYYY-MM-DD hh:mm:ss) UTC,Instrument flags,Ambient pressure (hPa),Sample flow (lpm),Bypass flow (lpm),Sample temperature (°C),Ambient temperature (°C),ASC tube jacket temperature (°C),LED temperature (°C),Box temperature (°C),Sample RH (%),Span deviation,Mass concentration (μg/m³),Mass concentration (μg/m³),Mass concentration (μg/m³)
DateTimeUTC,F1_M11,P_M11,Q1_M11,Q2_M11,T1_M11,T2_M11,T3_M11,T4_M11,T5_M11,U1_M11,ZSPAN_M11,X0_M11,X2_M11,X1_M11
2022-10-12 14:00:00,,0826.8,5.01,0.00,26.4,25.0,00.0,35.1,28.4,19.1,0002.2,0017.05,0007.21,0006.00
2022-10-12 14:01:00,,0826.8,4.98,0.00,26.4,25.0,00.0,35.1,28.4,18.7,0002.2,0016.79,0007.30,0006.00
2022-10-12 14:02:00,,0826.9,5.01,0.00,26.4,25.0,00.0,35.1,28.4,18.7,0001.5,0015.99,0007.27,0006.00
2022-10-12 14:03:00,,0827.0,4.99,0.00,26.4,25.0,00.0,35.1,28.4,19.1,0001.7,0016.07,0007.26,0005.99
2022-10-12 14:04:00,,0827.1,5.01,0.00,26.4,25.0,00.0,35.1,28.4,19.3,0001.9,0016.08,0007.25,0005.98
2022-10-12 14:05:00,,0826.8,5.00,0.00,26.4,25.1,00.0,35.1,28.4,19.4,0001.8,0016.52,0007.29,0005.97
2022-10-12 14:06:00,,0826.8,4.99,0.00,26.5,25.1,00.0,35.1,28.5,19.5,0001.6,0017.25,0007.29,0005.96
2022-10-12 14:07:00,,0826.8,5.00,0.00,26.5,25.1,00.0,35.2,28.5,19.3,0001.7,0016.84,0007.30,0005.97
2022-10-12 14:08:00,,0826.8,5.01,0.00,26.5,25.1,00.0,35.2,28.5,19.3,0001.7,0017.07,0007.27,0005.96
2022-10-12 14:09:00,,0826.7,4.99,0.00,26.5,25.1,00.0,35.2,28.5,19.4,0001.6,0016.90,0007.29,0005.98
2022-10-12 14:10:00,,0826.8,5.00,0.00,26.5,25.1,00.0,35.2,28.5,19.9,0001.5,0015.90,0007.25,0005.98
2022-10-12 14:11:00,,0826.9,5.00,0.00,26.5,25.1,00.0,35.2,28.5,20.1,0001.5,0015.35,0007.22,0005.96
2022-10-12 14:12:00,,0827.1,5.00,0.00,26.5,25.1,00.0,35.2,28.5,20.2,0001.6,0014.94,0007.18,0005.96
2022-10-12 14:13:00,,0826.9,5.00,0.00,26.5,25.1,00.0,35.2,28.5,19.7,0002.0,0015.09,0007.19,0005.94
2022-10-12 14:14:00,,0826.9,5.01,0.00,26.5,25.2,00.0,35.2,28.5,19.4,0002.0,0015.16,0007.19,0005.92
2022-10-12 14:15:00,,0827.0,4.99,0.00,26.5,25.2,00.0,35.2,28.5,19.2,0002.2,0015.33,0007.22,0005.88
2022-10-12 14:16:00,,0826.9,5.01,0.00,26.6,25.2,00.0,35.2,28.6,18.8,0002.5,0015.15,0007.16,0005.85
2022-10-12 14:17:00,,0826.9,5.01,0.00,26.6,25.2,00.0,35.3,28.6,18.9,0002.6,0014.53,0007.13,0005.81
2022-10-12 14:18:00,,0826.9,4.99,0.00,26.6,25.2,00.0,35.3,28.6,19.1,0002.6,0014.55,0007.13,0005.77
2022-10-12 14:19:00,,0826.9,5.01,0.00,26.6,25.2,00.0,35.3,28.6,19.0,0002.9,0014.96,0007.17,0005.75
2022-10-12 14:20:00,,0826.9,4.99,0.00,26.6,25.2,00.0,35.3,28.6,19.1,0003.0,0016.37,0007.15,0005.71
2022-10-12 14:21:00,,0827.1,5.01,0.00,26.6,25.2,00.0,35.3,28.6,18.9,0002.9,0016.93,0007.13,0005.68
2022-10-12 14:22:00,,0827.0,5.00,0.00,26.6,25.3,00.0,35.3,28.6,19.1,0002.1,0017.66,0007.11,0005.66
2022-10-12 14:23:00,,0827.0,5.00,0.00,26.6,25.3,00.0,35.3,28.6,19.2,0001.6,0018.13,0007.10,0005.64
2022-10-12 14:24:00,,0826.9,5.00,0.00,26.6,25.3,00.0,35.3,28.6,18.9,0001.5,0018.82,0007.08,0005.63
2022-10-12 14:25:00,,0827.0,4.99,0.00,26.7,25.3,00.0,35.3,28.7,19.0,0000.0,0019.07,0007.09,0005.62
2022-10-12 14:26:00,,0827.2,5.01,0.00,26.7,25.3,00.0,35.3,28.7,19.0,0001.3,0019.31,0007.10,0005.62
2022-10-12 14:27:00,,0827.1,4.99,0.00,26.7,25.3,00.0,35.3,28.7,19.1,0001.3,0019.50,0007.14,0005.63
2022-10-12 14:28:00,,0827.3,5.01,0.00,26.7,25.3,00.0,35.4,28.7,19.0,0001.3,0020.63,0007.18,0005.64
2022-10-12 14:29:00,,0827.3,4.99,0.00,26.7,25.4,00.0,35.4,28.7,19.1,0001.5,0021.14,0007.15,0005.64
2022-10-12 14:30:00,,0827.1,5.00,0.00,26.7,25.4,00.0,35.4,28.7,19.4,0001.4,0021.55,0007.18,0005.65
2022-10-12 14:31:00,,0827.1,5.01,0.00,26.7,25.4,00.0,35.4,28.7,19.3,0001.3,0020.40,0007.15,0005.64
2022-10-12 14:32:00,,0827.2,4.99,0.00,26.7,25.4,00.0,35.4,28.7,19.3,0001.4,0020.39,0007.10,0005.64
2022-10-12 14:33:00,,0827.2,5.02,0.00,26.7,25.4,00.0,35.4,28.7,19.3,0001.5,0019.68,0007.11,0005.65
2022-10-12 14:34:00,,0827.2,4.98,0.00,26.7,25.4,00.0,35.4,28.7,19.4,0001.7,0019.38,0007.17,0005.67
2022-10-12 14:35:00,,0827.1,5.01,0.00,26.8,25.4,00.0,35.4,28.7,19.1,0001.9,0019.09,0007.21,0005.68
2022-10-12 14:36:00,,0827.2,4.99,0.00,26.8,25.5,00.0,35.5,28.7,19.2,0002.0,0020.47,0007.24,0005.68
2022-10-12 14:37:00,,0827.2,5.02,0.00,26.8,25.5,00.0,35.5,28.7,19.0,0002.2,0020.29,0007.20,0005.70
2022-10-12 14:38:00,,0827.4,4.99,0.00,26.8,25.5,00.0,35.5,28.8,19.1,0002.0,0020.21,0007.18,0005.69
2022-10-12 14:39:00,,0827.2,5.01,0.00,26.8,25.5,00.0,35.5,28.8,18.9,0001.7,0019.49,0007.22,0005.68
2022-10-12 14:40:00,,0827.2,4.99,0.00,26.8,25.5,00.0,35.5,28.8,19.3,0001.8,0018.82,0007.27,0005.70
2022-10-12 14:41:00,,0827.2,5.01,0.00,26.8,25.5,00.0,35.5,28.8,18.8,0001.9,0018.62,0007.22,0005.69
2022-10-12 14:42:00,,0827.2,5.01,0.00,26.9,25.5,00.0,35.5,28.8,18.0,0001.8,0018.08,0007.16,0005.66
2022-10-12 14:43:00,,0827.2,4.99,0.00,26.9,25.5,00.0,35.5,28.8,18.7,0001.9,0017.94,0007.23,0005.66
2022-10-12 14:44:00,,0827.3,5.01,0.00,26.9,25.6,00.0,35.5,28.8,18.7,0001.8,0019.31,0007.20,0005.65
2022-10-12 14:45:00,,0827.3,4.99,0.00,26.9,25.6,00.0,35.5,28.9,18.9,0001.6,0019.79,0007.13,0005.62
2022-10-12 14:46:00,,0827.3,5.00,0.00,26.9,25.6,00.0,35.6,28.9,18.7,0001.4,0019.13,0007.10,0005.60
2022-10-12 14:47:00,,0827.4,5.01,0.00,26.9,25.6,00.0,35.6,28.9,18.7,0001.6,0017.25,0007.04,0005.61
2022-10-12 14:48:00,,0827.4,4.98,0.00,26.9,25.6,00.0,35.6,28.9,18.9,0001.8,0016.69,0007.02,0005.61
2022-10-12 14:49:00,,0827.4,5.00,0.00,26.9,25.6,00.0,35.6,28.9,18.6,0002.1,0016.73,0007.02,0005.60
2022-10-12 14:50:00,,0827.3,5.01,0.00,26.9,25.6,00.0,35.6,28.9,17.6,0002.2,0016.43,0006.97,0005.61
2022-10-12 14:51:00,,0827.2,4.99,0.00,26.9,25.7,00.0,35.6,28.9,17.7,0002.1,0016.20,0006.91,0005.60
2022-10-12 14:52:00,,0827.2,4.99,0.00,27.0,25.7,00.0,35.6,29.0,18.1,0001.8,0015.43,0006.96,0005.61
2022-10-12 14:53:00,,0827.2,5.00,0.00,27.0,25.7,00.0,35.6,29.0,18.5,0002.2,0015.73,0007.01,0005.62
2022-10-12 14:54:00,,0827.3,4.99,0.00,27.0,25.8,00.0,35.6,29.0,18.8,0002.0,0015.34,0006.99,0005.63
2022-10-12 14:55:00,,0827.4,5.01,0.00,27.0,25.8,00.0,35.7,29.0,18.9,0001.8,0014.44,0006.98,0005.64
2022-10-12 14:56:00,,0827.5,4.99,0.00,27.0,25.8,00.0,35.7,29.0,18.7,0001.5,0013.67,0006.96,0005.64
2022-10-12 14:57:00,,0827.4,5.01,0.00,27.0,25.8,00.0,35.7,29.0,18.6,0001.5,0013.59,0006.93,0005.65
2022-10-12 14:58:00,,0827.4,4.99,0.00,27.0,25.8,00.0,35.7,29.0,18.4,0001.5,0013.71,0006.94,0005.64
2022-10-12 14:59:00,,0827.4,5.01,0.00,27.0,25.8,00.0,35.7,29.0,18.1,0001.7,0013.51,0006.91,0005.62
